Weather in Bulawayo

Zimbabwe     20°08′47″S   28°33′41″E
temp.,
°C
wind,
m/s
gust,
m/s
humid.,
%
clouds,
%
prec.,
mm/h
press.,
hPa
HPBL,
m
25 january, tue
tue2523:00+16se5139190 0.0 1016602
02:00+16se51385100 0.0 1014686
05:00+15se61593100 0.0 1013706
08:00+17se71487100 0.0 1014645
11:00+21se71171100 0.0 10131105
14:00+22se696599 0.2 10111264
17:00+23sse71061100 0.1 10091417
20:00+20se6127385 0.2 10111145
26 january, wed
wed2623:00+18se71488100 0.0 1012992
02:00+18se81689100 0.0 10091074
05:00+18se71595100 0.5 10091095
08:00+17se81694100 0.8 1011941
11:00+18se71492100 0.4 1011990
14:00+17se81496100 2.3 10101041
17:00+17se61395100 0.4 10091178
20:00+17se71294100 0.6 10111050
27 january, thu
thu2723:00+17ese51197100 0.1 1011772
02:00+17se51097100 0.2 1010648
05:00+17ese4997100 0.1 1010764
08:00+17ese51097100 1.4 1012734
11:00+18ese3895100 0.7 1011775
14:00+22ese457582 1.1 1008836
17:00+21se578092 1.8 1008807
20:00+18se5119563 2.2 1010561
28 january, fri
fri2823:00+18ese61291100 0.1 1011603
02:00+18ese41195100 0.2 1009603
05:00+18ese4796100 1.6 1009405
08:00+18ese3796100 1.8 1011521
11:00+19e3489100 0.6 1010439
14:00+24ese2265100 2.2 10071262
17:00+23se447356 2.3 1006819
20:00+19ese4109389 6.0 1008383
29 january, sat
sat2923:00+19e4995100 3.0 1010390
02:00+18e4996100 3.6 1008353
05:00+18e4995100 1.6 1009335
08:00+19e598998 2.8 1011453
11:00+22ese578195 2.8 1011918
14:00+20ese6119092 5.2 1010833
17:00+18ese7149192 1.9 10101004
20:00+18ese7158996 2.0 10111053